Theta_e
342 339 339 339 338 338 338 338 339 340 339 336 337 336 334 333 333 333 331 331 328 329 330 328 327 328 328 329 330 329 327 326 320 323 327 328 327 328 329 331 331 331 331
335 336 335 335 335 332 330 330 330 329 330 329 329 327 326 326 327 325 323 323 322 321 321 323 322 321 322 321 320 320 319 321 322 318 320 321 323 326 325 326 328 330 329
332 330 330 330 329 328 328 328 327 326 325 323 323 321 319 318 319 318 313 312 312 313 316 318 319 318 317 316 313 310 310 312 313 312 313 317 319 322 323 326 326 326 329
329 328 326 325 325 324 323 322 321 321 320 319 319 317 316 314 311 310 309 308 309 310 313 314 315 316 311 312 309 309 309 307 307 307 307 308 309 312 314 312 313 319 322
325 324 322 322 321 320 319 320 320 319 318 317 316 316 316 306 303 304 306 306 306 306 310 314 315 313 310 309 307 307 306 303 304 304 304 305 306 306 307 308 306 308 311
321 319 319 319 319 319 319 318 317 316 316 315 314 312 312 303 299 300 301 303 305 307 308 312 312 309 310 308 308 307 306 303 302 301 300 300 301 303 304 303 302 301 300
317 317 316 316 315 315 315 314 314 314 314 312 312 311 304 301 297 297 300 303 308 308 309 309 308 308 305 305 304 304 305 305 305 304 302 302 302 303 304 302 301 300 299
314 313 313 312 310 311 311 311 312 312 311 311 311 308 305 299 297 296 296 307 308 308 309 308 308 303 297 298 300 301 303 304 306 305 304 304 304 305 303 302 301 300 301
309 308 309 308 308 308 308 309 310 311 312 310 308 307 305 300 295 295 297 304 305 305 307 305 303 301 295 295 299 300 302 303 304 302 301 300 298 297 299 299 298 297 296
307 307 307 307 307 306 308 309 310 309 306 306 304 305 303 300 294 294 295 301 300 301 307 300 297 297 295 295 298 300 299 300 300 301 303 303 303 303 302 303 300 297 297
306 306 307 307 307 309 308 307 307 305 305 304 304 303 304 302 296 294 294 297 296 298 300 301 299 295 294 294 294 300 297 297 300 302 302 302 303 303 303 304 303 301 299
307 306 306 307 306 306 306 305 305 306 304 303 304 302 303 300 297 294 294 294 296 297 297 299 300 294 293 293 296 294 294 296 300 300 300 300 300 301 302 302 302 302 303
305 304 305 305 304 304 303 303 302 303 301 301 300 300 301 300 300 296 295 294 296 297 299 298 296 294 295 297 297 295 296 298 298 299 298 298 299 301 302 301 299 300 300
305 305 304 302 301 302 300 300 298 297 299 299 298 298 298 298 294 293 293 296 296 298 297 300 297 296 296 297 299 298 297 297 295 294 293 295 297 296 296 298 295 295 295
304 304 303 301 299 297 294 294 294 290 290 295 295 294 293 292 290 289 289 291 292 293 292 299 297 296 295 296 295 294 294 294 292 292 292 292 291 292 293 295 293 293 292
301 301 300 300 298 296 294 291 289 289 289 289 289 290 291 289 289 290 290 291 290 290 295 294 292 292 292 292 291 290 291 291 291 290 290 290 289 290 290 291 292 292 291
299 299 298 299 299 297 296 294 289 289 290 289 289 289 289 288 289 290 290 290 290 292 293 292 291 291 291 291 290 289 289 291 291 291 289 288 288 288 288 288 289 290 290
297 295 299 299 299 299 298 295 295 293 292 291 289 291 289 289 290 290 290 292 292 291 291 290 290 290 291 290 290 289 290 291 290 290 288 287 287 287 287 287 288 288 289
297 298 299 300 299 298 298 297 296 295 295 294 293 292 291 290 290 290 291 292 290 290 290 291 292 292 292 292 292 292 292 291 290 288 286 286 286 287 287 288 288 288 290
296 293 295 298 297 298 297 296 295 294 294 293 293 294 297 292 294 293 294 293 292 291 292 293 293 294 294 293 292 292 291 290 288 287 286 286 287 288 287 288 290 292 293
297 297 289 297 298 298 297 296 296 295 294 291 292 291 283 291 293 294 294 294 294 293 293 294 293 293 293 292 291 290 289 289 288 287 286 287 288 288 289 292 293 294 294
297 298 298 298 298 298 298 298 298 297 296 294 294 292 285 295 294 294 294 294 295 295 295 294 294 292 292 291 290 289 287 287 287 286 287 289 289 291 291 294 293 294 295
297 298 298 299 298 292 297 297 296 295 294 294 294 293 293 293 293 293 294 295 295 295 295 294 293 291 291 290 290 288 286 285 285 286 287 287 290 293 294 293 293 293 294
296 297 297 296 296 296 295 294 293 291 293 293 294 293 293 293 293 294 293 294 294 294 294 293 293 289 288 288 287 287 286 284 285 286 286 288 291 294 297 293 293 293 294
296 296 296 296 296 295 295 295 294 293 293 293 293 293 293 293 292 292 293 293 293 293 293 292 292 288 286 285 284 284 283 283 284 283 286 290 294 295 295 296 295 293 293
297 296 296 296 296 296 294 294 293 293 292 292 291 292 291 291 291 291 291 292 291 292 291 291 291 288 285 284 283 283 282 282 282 283 285 292 292 293 292 294 295 295 293
Wind_Speed
14 15 15 14 14 13 12 10 8 8 8 9 6 5 5 6 6 6 6 5 6 5 5 6 7 7 5 5 3 3 2 2 4 3 2 2 2 6 6 8 7 5 5
15 15 15 14 14 14 13 11 10 9 8 7 6 5 5 5 5 5 8 9 8 8 8 7 6 6 6 6 6 7 6 7 4 7 5 4 5 6 8 8 6 6 5
16 16 16 16 15 14 12 10 9 9 8 8 6 7 7 8 8 10 10 10 11 10 9 8 7 7 6 7 6 7 7 8 9 8 9 5 5 4 5 6 6 6 7
17 17 17 15 14 13 12 11 10 9 7 7 6 7 8 10 11 11 10 9 10 10 10 7 7 5 5 6 5 5 7 8 8 8 9 8 7 7 6 8 8 4 7
17 16 16 15 14 13 12 10 9 8 7 8 7 7 7 11 9 9 8 8 8 9 10 9 6 12 11 8 5 6 6 7 7 8 8 9 8 10 10 9 9 9 9
16 15 15 15 13 11 11 9 8 9 8 8 7 7 9 9 9 12 10 8 8 8 8 8 6 13 12 9 6 6 6 6 7 8 9 9 11 10 8 8 9 10 9
15 15 14 13 12 10 10 11 8 8 7 6 6 6 13 10 12 12 11 6 5 7 8 6 7 8 9 8 10 12 10 10 11 7 8 8 9 8 8 9 9 9 10
14 14 13 13 12 10 11 9 7 6 5 4 5 12 9 10 11 15 18 6 5 6 4 3 3 7 7 8 9 8 9 8 6 5 5 8 9 10 10 10 11 11 10
14 12 12 11 10 10 9 7 6 4 4 8 9 10 9 9 14 13 11 8 5 6 7 8 10 7 7 9 8 8 9 8 10 13 13 13 12 12 10 6 8 9 11
12 11 10 10 9 10 7 6 5 7 8 7 8 7 10 7 9 10 12 8 9 7 3 7 12 8 7 8 6 7 8 9 11 11 10 9 9 9 10 6 6 8 9
9 9 10 7 9 8 8 8 6 7 6 6 5 5 5 5 5 7 12 8 7 7 6 4 3 8 11 10 8 5 7 9 10 8 8 7 8 8 7 8 8 8 10
8 9 7 6 8 9 7 7 6 4 5 5 2 3 5 6 6 5 9 7 8 6 6 5 7 12 9 9 6 9 9 9 6 6 8 9 9 10 7 8 12 12 11
5 6 5 11 9 9 6 6 6 6 4 3 4 4 4 4 5 14 11 12 8 7 4 7 9 7 6 6 8 9 7 6 7 8 9 9 10 10 14 9 12 14 14
4 8 10 9 8 8 7 6 7 6 4 5 5 4 4 5 8 8 7 7 9 8 9 4 6 8 6 6 7 10 9 9 9 9 10 10 9 10 10 8 11 11 11
6 6 8 6 8 9 9 7 8 8 7 5 6 6 7 6 7 7 5 6 6 7 9 3 7 7 8 8 7 10 9 9 10 10 10 10 12 12 10 10 10 10 10
7 5 4 6 7 6 7 8 13 9 9 9 10 10 7 7 7 7 6 9 11 9 5 6 7 8 8 9 9 11 9 12 10 10 11 10 10 11 12 11 9 9 10
6 5 5 5 4 6 6 7 7 4 4 5 10 10 8 6 9 9 7 1 10 9 6 7 8 8 8 9 8 9 9 8 11 9 10 10 10 11 13 11 11 10 11
6 7 3 4 4 3 5 7 4 6 5 4 3 6 1 2 6 10 11 8 7 8 7 7 6 6 6 6 6 7 7 7 9 9 10 10 10 10 11 11 11 12 12
5 4 3 1 5 5 5 5 5 4 5 4 5 3 6 6 6 6 7 6 6 6 5 4 4 4 4 5 5 6 8 8 8 10 9 10 10 10 11 11 12 15 13
3 5 1 5 4 5 6 6 6 5 5 5 4 2 2 5 4 5 5 4 5 5 4 5 5 7 8 9 10 10 10 10 10 9 10 10 10 10 11 12 11 12 13
4 4 1 5 5 5 6 6 6 6 6 6 5 2 3 4 6 5 5 5 6 5 5 7 8 9 9 10 10 10 11 10 9 10 11 11 10 11 11 11 11 11 11
5 5 5 6 6 7 7 7 6 5 6 7 6 4 3 3 6 6 6 6 6 6 7 7 8 9 10 10 10 11 11 11 10 11 12 12 11 10 10 12 13 11 11
3 5 5 4 6 5 5 6 6 6 6 6 6 6 6 6 6 6 6 6 6 6 7 7 8 9 9 9 10 10 11 11 11 11 13 13 12 11 5 10 13 12 12
3 3 5 7 7 6 7 7 7 8 7 6 6 7 6 6 6 7 6 6 6 7 7 8 8 12 11 10 10 10 11 11 11 11 16 12 12 13 5 6 10 14 12
4 4 5 5 6 7 6 7 7 7 7 6 7 7 7 7 6 6 7 6 7 7 8 8 8 13 14 17 17 18 18 20 18 18 12 13 17 17 13 8 5 9 14
6 6 6 6 5 6 7 7 7 6 6 7 7 7 7 7 7 7 7 8 7 7 9 8 11 15 17 14 17 17 18 20 19 22 14 13 14 13 13 13 16 6 11
Wind_Direction
106 108 110 107 103 101 101 99 93 99 105 104 121 119 95 70 34 14 358 29 7 1 346 6 0 353 356 344 325 296 295 306 293 285 300 240 237 258 277 245 257 263 262
115 114 112 110 106 98 94 89 81 77 71 63 58 63 62 59 57 26 19 12 3 360 357 353 354 349 350 344 356 3 345 337 313 292 292 288 262 220 227 237 238 245 239
120 114 108 102 102 100 98 94 91 83 71 54 44 44 36 19 13 52 32 12 359 346 343 344 334 339 332 28 9 5 343 344 335 330 318 305 299 297 276 231 229 242 245
114 110 107 106 102 95 89 82 75 63 61 65 41 45 37 41 43 30 25 6 353 339 326 324 315 339 31 16 7 353 5 343 335 329 321 321 322 320 338 344 340 322 277
110 110 109 104 97 92 88 84 77 63 47 45 38 35 38 65 40 26 8 357 337 318 310 302 15 61 55 48 18 8 357 344 326 327 323 330 334 345 345 352 340 334 327
116 114 106 103 103 102 97 86 70 60 45 34 30 28 40 68 39 32 16 334 321 309 301 27 54 50 28 27 347 319 296 303 310 317 314 320 316 327 327 333 329 331 319
112 108 106 104 98 91 82 71 58 57 45 35 27 29 70 58 28 11 359 324 329 13 16 26 0 23 29 9 349 334 317 291 244 272 289 288 296 302 308 309 310 302 291
93 89 85 82 75 69 67 61 50 51 45 39 42 70 74 52 29 19 346 359 5 356 341 357 2 75 33 4 328 327 322 336 329 348 328 321 316 315 304 294 296 290 285
80 76 75 75 75 68 63 60 54 58 66 64 61 51 62 54 35 10 351 324 9 342 0 20 82 61 19 5 338 331 334 332 347 338 330 313 306 299 290 304 287 284 281
78 77 68 65 71 72 65 75 61 55 58 64 74 66 81 77 46 13 11 360 9 345 24 75 53 47 10 2 347 336 341 341 325 321 316 316 313 304 292 260 278 280 279
61 71 69 59 96 86 72 69 62 74 76 70 83 111 104 89 69 50 30 12 10 337 345 11 77 23 5 353 342 3 326 313 310 301 309 313 319 320 320 319 304 291 281
60 71 77 80 60 81 79 85 70 59 86 104 93 106 114 105 66 74 32 14 347 340 341 343 350 350 344 332 331 333 334 325 314 322 326 325 325 322 312 313 311 300 291
88 82 81 71 75 80 76 67 74 51 52 78 63 64 101 130 49 30 18 348 343 321 337 340 326 327 312 315 303 312 328 341 330 331 341 337 327 321 319 321 315 306 301
66 67 67 68 79 60 60 57 52 29 30 51 36 33 49 41 39 11 360 345 355 348 352 349 320 310 290 306 357 13 0 355 349 343 329 323 321 322 324 322 316 316 309
92 74 98 101 95 87 65 41 81 50 31 26 20 52 27 28 15 339 327 344 343 316 316 320 15 10 5 358 10 360 353 349 348 341 334 331 328 326 323 325 314 312 308
110 102 55 112 109 105 111 92 59 71 59 64 51 46 96 61 353 345 326 310 323 334 34 27 18 11 7 2 2 357 353 351 348 342 338 331 327 326 322 321 316 315 313
85 101 86 88 137 155 148 133 122 99 82 73 81 67 50 350 344 351 349 245 18 19 32 28 20 15 8 3 3 354 339 344 337 334 340 333 328 323 323 320 319 317 316
98 66 144 135 128 142 121 149 146 153 146 121 170 90 109 328 9 19 12 49 42 35 26 19 18 10 359 357 357 337 330 335 340 347 340 331 325 321 320 320 319 317 313
131 152 145 115 82 93 98 96 85 93 99 112 139 185 188 222 158 93 41 61 46 43 17 3 20 4 358 346 339 333 342 348 2 349 337 327 320 320 317 315 314 315 310
93 43 119 121 147 134 124 119 116 116 107 82 67 124 172 189 91 69 66 57 61 58 3 349 14 9 12 10 9 357 356 2 354 342 330 322 317 319 315 316 318 323 323
145 151 115 154 150 138 128 125 127 132 125 94 88 76 340 316 72 65 44 41 44 49 16 7 20 26 14 15 8 356 1 354 348 335 327 319 320 320 318 316 324 322 321
159 164 189 151 137 145 146 143 146 135 121 131 132 105 205 49 60 53 46 40 35 34 36 14 18 32 18 18 7 359 358 348 342 331 322 324 320 315 318 334 335 335 337
163 173 182 158 112 127 149 115 114 106 96 91 83 78 71 62 57 51 45 39 36 32 39 26 20 36 24 21 11 1 356 346 332 323 327 316 314 314 318 345 347 343 346
220 207 148 156 156 104 78 82 72 70 92 92 87 83 77 72 59 43 32 34 37 35 43 30 15 45 27 22 11 360 352 342 329 327 325 314 309 348 341 334 350 355 347
211 213 105 121 100 106 121 97 92 93 89 82 78 73 73 57 51 51 32 22 31 37 31 37 9 46 29 21 14 3 348 342 339 338 330 317 348 352 344 353 357 358 4
176 154 123 107 109 100 101 101 101 95 94 89 79 70 56 54 39 33 36 15 27 24 30 38 11 51 30 18 7 358 352 346 345 339 329 357 351 350 343 3 1 16 9